KB4JHU-15 Weather Reports


Display with metric or nautical units.
time (UTC)temp
F
wind
direction
speed
MPH
gust
MPH
rain 1hr
in
rain 24hr
in
rain mn
in
humidity
%
barometer
mb
20260906042827 79 312 3.0 3.0 0.00 0.00 0.00 78
20260906035826 79 360 0.0 1.0 0.00 0.00 0.00 79
20260906032825 80 360 0.0 0.0 0.00 0.00 0.00 78
20260906025824 79 319 1.0 2.0 0.00 0.00 0.00 76
20260906022823 80 360 0.0 0.0 0.00 0.00 0.00 74
20260906015822 81 360 0.0 0.0 0.00 0.00 0.00 73
20260906012821 80 360 0.0 0.0 0.00 0.00 0.00 72
20260906005820 85 360 0.0 0.0 0.00 0.00 0.00 65
20260906002819 84 360 0.0 0.0 0.00 0.00 0.00 65
20260905235818 86 360 0.0 1.0 0.00 0.00 0.00 59
20260905232817 86 360 0.0 0.0 0.00 0.00 0.00 54
20260905225816 87 205 1.0 1.0 0.00 0.00 0.00 54
20260905222815 86 84 4.0 5.0 0.00 0.00 0.00 53
20260905215814 93 93 9.0 9.0 0.00 0.00 0.00 44
20260905212813 97 34 2.0 2.0 0.00 0.00 0.00 40
20260905205812 99 37 2.0 3.0 0.00 0.00 0.00 36
20260905202811 98 11 3.0 3.0 0.00 0.00 0.00 38
20260905195810 97 318 4.0 5.0 0.00 0.00 0.00 40
20260905192809 97 27 4.0 4.0 0.00 0.00 0.00 40
20260905185808 97 87 4.0 4.0 0.00 0.00 0.00 42
20260905182807 99 20 4.0 4.0 0.00 0.00 0.00 40
20260905175806 97 68 4.0 4.0 0.00 0.00 0.00 40
20260905172805 97 56 4.0 4.0 0.00 0.00 0.00 42
20260905165804 97 20 3.0 3.0 0.00 0.00 0.00 43
20260905162803 95 125 2.0 2.0 0.00 0.00 0.00 45
20260905155802 93 52 2.0 2.0 0.00 0.00 0.00 49
20260905152801 91 58 1.0 2.0 0.00 0.00 0.00 53
20260905145800 87 93 2.0 2.0 0.00 0.00 0.00 64
20260905142802 84 21 1.0 1.0 0.00 0.00 0.00 72
20260905135758 81 360 0.0 0.0 0.00 0.00 0.00 78
20260905132757 79 360 0.0 0.0 0.00 0.00 0.00 85
20260905125756 76 360 0.0 0.0 0.00 0.00 0.00 91
20260905122755 75 360 0.0 0.0 0.00 0.00 0.00 94
20260905115754 74 360 0.0 0.0 0.00 0.00 0.00 94
20260905112753 74 360 0.0 0.0 0.00 0.00 0.00 94
20260905105752 74 360 0.0 0.0 0.00 0.00 0.00 94
20260905102751 75 360 0.0 0.0 0.00 0.00 0.00 94
20260905095750 75 360 0.0 0.0 0.00 0.00 0.00 93
20260905092749 75 360 0.0 0.0 0.00 0.00 0.00 93
20260905085748 75 360 0.0 0.0 0.00 0.00 0.00 92
20260905082747 75 11 1.0 1.0 0.00 0.00 0.00 92
20260905075746 75 360 0.0 0.0 0.00 0.00 0.00 92
20260905072745 76 360 0.0 0.0 0.00 0.00 0.00 92
20260905065744 76 360 0.0 0.0 0.00 0.00 0.00 91
20260905062743 77 360 0.0 0.0 0.00 0.00 0.00 90
20260905055742 76 360 0.0 0.0 0.00 0.00 0.00 89
20260905052741 77 360 0.0 0.0 0.00 0.00 0.00 88
20260905045740 78 360 0.0 0.0 0.00 0.00 0.00 87